Tracking 29892 objects as of 21-Nov-2024
HD Live streaming from Space Station
objects crossing your sky now

DELTA 1 DEB

Track DELTA 1 DEB now!
10-day predictions


NORAD ID: 10768
Int'l Code: 1976-077BR
Perigee: 1,504.4 km
Apogee: 1,621.4 km
Inclination: 102.4 °
Period: 117.2 minutes
Semi major axis: 7933 km
RCS: 0.0546 m2 (small)
Launch date: July 29, 1976
Source: United States (US)
Launch site: AIR FORCE WESTERN TEST RANGE (AFWTR)

Note: This is SATELLITE DEBRIS
Your satellite tracking list
Your tracking list is empty




NASA's NSSDC Master Catalog

Two Line Element Set (TLE):
1 10768U 76077BR  24325.12961896  .00000179  00000-0  19325-2 0  9996
2 10768 102.4114  30.9960 0073723 258.0447 130.4953 12.28497312165675
Source of the keplerian elements: AFSPC